Wind_Speed
27 23 21 22 22 22 23 23 24 23 24 25 24 21 20 18 19 19 18 17 18 18 18 18 19 19 18 18 19 19 19 19 19 19 18 18 18 18 19 19 20 20 21 21
27 25 23 23 23 23 23 23 24 24 24 25 27 24 24 22 21 19 19 19 19 19 20 20 20 20 20 20 20 21 20 21 21 21 20 19 19 20 21 21 22 22 22 22
27 26 25 26 25 24 23 24 25 26 27 26 28 27 26 26 23 21 21 21 21 21 22 22 22 22 22 22 22 22 22 22 22 22 22 22 21 22 22 23 23 24 24 24
28 26 28 27 25 25 26 26 26 28 29 28 30 29 28 29 26 23 24 23 23 23 23 23 23 24 24 24 24 24 24 24 24 24 24 23 23 23 23 24 25 25 25 25
30 28 28 27 27 25 27 28 28 29 30 30 30 28 28 29 27 26 24 24 24 25 25 25 25 26 25 25 25 25 25 25 25 24 25 25 25 25 25 25 25 25 25 25
31 29 29 29 27 26 27 30 30 30 31 31 30 31 31 29 28 27 26 26 26 26 26 26 27 27 26 26 26 26 26 26 26 26 26 25 25 25 25 26 25 26 26 26
32 31 31 30 28 28 29 31 30 31 31 31 32 33 34 31 29 29 29 29 28 27 27 27 28 28 27 27 27 27 28 27 27 26 26 26 27 27 27 27 27 27 27 27
32 32 34 32 30 31 31 31 31 30 31 32 33 34 34 33 30 30 30 30 30 29 29 29 29 29 28 28 28 29 29 29 28 28 28 28 28 28 29 29 29 29 29 29
32 35 36 33 32 33 33 32 31 32 33 34 32 34 34 33 33 32 32 32 31 31 31 30 30 30 30 30 30 31 31 31 30 30 30 30 30 30 30 29 29 29 29 29
34 35 36 34 34 33 34 34 33 34 34 34 33 34 34 33 34 34 34 33 33 33 33 32 32 31 32 32 32 32 33 34 33 32 31 31 30 30 30 30 30 30 30 30
36 36 37 35 34 35 36 35 35 35 35 34 34 34 34 32 32 34 35 35 35 35 35 34 33 33 33 33 33 33 34 35 34 32 32 31 32 32 32 32 31 31 31 30
36 36 36 35 35 36 35 35 35 35 36 35 35 35 35 35 33 33 34 35 36 36 36 36 35 35 34 34 33 34 34 34 34 34 34 34 33 33 33 33 32 32 32 31
34 33 33 34 34 34 35 36 35 35 35 35 35 35 35 35 35 35 35 35 36 36 36 37 36 35 34 34 33 34 34 34 34 35 35 35 35 34 33 33 32 32 31 32
33 33 33 33 33 33 34 34 34 34 34 33 34 34 34 34 35 35 35 35 35 35 36 36 35 34 34 34 34 34 34 34 34 34 34 35 35 35 35 33 32 32 32 33
32 33 34 34 34 33 34 33 33 32 33 33 33 33 33 33 34 35 35 35 35 34 34 35 35 35 34 34 35 35 35 35 35 35 34 34 34 34 34 33 33 33 32 32
30 31 32 33 33 33 33 33 32 32 32 32 33 32 32 32 32 32 33 34 34 34 33 33 34 34 35 35 35 35 35 35 35 35 34 34 34 34 34 33 33 33 33 32
30 30 30 31 31 32 32 31 31 31 32 32 32 32 32 32 32 33 32 32 32 32 32 32 33 33 34 34 34 35 35 35 35 35 35 35 34 34 34 33 33 33 33 33
29 29 29 29 29 30 30 30 30 30 31 31 32 32 32 32 32 31 31 31 31 31 31 31 32 32 33 33 33 34 34 35 35 35 35 35 35 34 33 33 34 34 34 34
27 27 27 27 27 29 29 29 29 30 31 31 31 31 31 30 30 30 30 30 30 30 30 30 31 31 31 32 33 33 33 33 33 33 33 33 33 33 33 33 34 34 35 35
26 25 25 25 26 26 26 27 27 28 29 28 28 28 28 28 28 28 29 29 29 30 30 30 30 30 31 31 31 31 32 32 32 31 32 31 31 32 32 33 34 34 35 35
23 24 24 24 24 24 24 25 25 26 26 26 26 27 27 27 28 28 28 28 29 28 28 29 30 30 30 31 31 30 30 31 31 30 30 30 31 31 32 33 33 33 34 35
21 22 22 22 22 22 22 23 23 24 24 24 25 26 27 27 27 27 27 27 27 27 27 28 28 28 28 28 28 29 29 30 30 30 30 30 31 31 32 32 32 33 33 34
19 19 19 19 19 19 19 21 21 22 22 23 24 24 24 25 25 25 25 25 25 26 26 27 28 28 27 27 28 28 28 28 28 29 29 30 31 32 32 32 32 32 32 32
18 17 16 16 16 17 18 18 19 20 20 20 21 21 22 22 23 23 23 23 23 23 24 24 25 26 26 27 27 27 28 28 28 28 29 30 31 31 31 31 31 32 32 33
16 15 15 15 15 16 16 17 17 18 19 19 19 19 19 20 20 20 20 21 21 21 22 23 24 25 25 26 26 27 27 27 27 28 29 30 31 31 30 30 30 31 31 32
13 13 14 15 15 15 15 15 15 16 17 17 17 17 17 17 17 18 19 20 20 21 22 22 23 24 25 25 25 26 27 27 27 28 29 30 29 29 29 29 29 30 31 32
11 12 13 14 14 14 14 14 14 14 14 15 15 15 16 16 16 18 19 20 20 20 21 21 22 23 24 25 26 27 27 28 28 28 29 29 29 29 29 30 30 30 31 31
Wind_Direction
222 221 229 235 235 235 233 233 241 249 259 266 270 267 268 273 274 273 274 274 277 279 285 288 289 291 293 296 296 297 297 298 298 300 301 302 305 309 311 312 313 314 314 313
227 223 223 229 234 240 239 236 239 244 253 259 265 267 269 272 272 272 273 273 275 279 282 284 285 286 289 291 292 294 296 296 298 298 301 301 302 304 307 308 309 310 310 312
230 228 230 234 232 239 241 239 240 245 249 257 265 266 268 269 268 270 272 272 273 277 279 280 281 284 287 290 292 293 294 296 300 300 299 297 297 299 303 305 306 307 307 308
230 232 234 235 234 238 241 241 240 245 248 252 259 262 264 264 263 264 267 270 272 275 277 278 279 282 285 288 289 290 292 294 298 299 300 297 297 297 297 300 302 303 303 304
229 233 236 238 236 235 240 244 244 244 249 253 255 257 261 263 264 263 267 268 271 273 276 278 279 281 282 285 286 288 291 293 295 297 298 297 295 295 295 297 299 300 302 303
228 231 237 238 238 242 246 247 245 246 248 253 255 255 258 261 262 263 267 268 270 272 275 278 280 280 281 283 283 285 289 291 293 294 295 293 293 294 295 295 296 298 300 301
229 232 239 241 240 245 244 246 247 247 249 253 255 256 258 259 262 264 266 268 269 271 274 276 278 279 280 282 282 284 287 289 290 292 295 294 294 294 293 293 294 294 296 298
231 233 238 242 243 245 247 247 249 251 253 255 257 257 258 259 260 263 265 267 268 270 273 274 275 277 278 279 281 283 286 287 288 289 290 292 292 292 292 292 293 293 294 295
233 234 237 238 240 245 249 252 252 254 257 258 259 259 261 261 262 263 265 266 266 268 270 272 273 274 276 278 280 282 284 284 286 287 288 290 292 292 292 292 292 292 293 294
234 235 238 242 242 245 249 252 254 256 258 261 261 262 263 263 263 263 264 265 265 266 268 269 272 273 275 278 281 282 282 284 285 286 287 288 289 290 291 293 292 291 292 293
236 238 241 243 245 246 248 251 255 257 259 261 262 263 265 265 262 261 262 263 265 265 267 269 270 273 275 278 280 282 283 284 285 285 286 288 290 291 291 294 296 294 292 292
237 240 243 244 246 249 251 253 256 258 259 260 261 263 265 266 265 263 262 263 264 265 267 269 269 271 275 277 279 281 283 284 285 286 288 289 292 294 295 297 298 296 294 292
240 244 246 247 249 251 253 254 256 258 261 262 263 265 267 267 267 266 264 263 265 267 268 269 269 271 273 275 278 280 282 283 285 287 289 291 292 293 294 294 295 296 294 293
242 245 247 248 250 252 254 255 256 258 261 263 265 266 268 268 268 268 267 266 267 267 268 270 271 272 273 275 276 279 281 283 285 287 288 290 291 291 293 293 294 295 295 292
244 245 248 250 252 254 255 257 258 260 261 263 264 266 268 269 268 268 268 268 268 268 269 270 271 272 273 274 276 278 281 283 284 285 287 289 291 292 292 293 295 295 295 294
247 248 251 253 253 253 254 257 260 262 262 263 264 265 266 268 269 269 268 267 268 269 270 270 271 272 273 274 276 278 280 282 284 285 286 288 290 291 292 292 293 293 294 295
248 250 253 255 254 254 255 257 259 261 262 262 263 265 266 266 268 268 268 268 269 271 271 270 271 272 274 275 277 278 279 280 282 283 284 286 287 288 289 290 292 293 293 294
249 252 254 255 255 254 253 256 258 260 262 263 264 265 267 267 269 269 269 269 270 271 271 272 274 276 276 276 278 279 279 279 281 282 283 284 285 286 287 288 290 291 292 294
248 251 253 254 255 255 256 257 258 260 261 263 265 267 268 269 271 270 269 269 270 271 273 274 275 276 277 278 279 280 280 281 282 283 284 285 285 286 286 287 288 290 291 293
250 252 254 255 254 254 255 256 257 259 260 262 264 266 268 269 271 271 270 271 271 273 274 275 276 277 278 279 279 279 280 282 283 284 284 284 286 287 288 289 289 290 291 293
253 253 253 253 252 253 254 255 257 259 261 261 263 266 268 270 271 273 273 273 273 275 276 276 277 278 279 279 278 278 280 281 282 283 285 285 286 287 289 289 289 290 292 293
253 254 255 254 254 254 255 256 259 261 263 264 264 267 270 271 271 273 275 275 276 276 277 277 278 279 281 280 279 280 282 282 282 283 284 285 286 287 289 290 290 291 293 294
255 255 252 252 252 252 255 257 259 261 264 266 268 270 273 275 274 274 275 274 275 276 277 277 277 279 281 282 281 281 282 284 285 285 286 287 288 289 290 291 291 292 294 294
252 252 251 250 250 253 256 258 261 264 267 270 272 273 276 278 276 275 275 275 276 277 278 279 280 281 282 283 282 282 283 284 286 287 288 289 291 292 292 291 291 292 293 293
251 252 252 253 256 258 260 262 265 267 270 272 273 275 277 278 278 276 276 277 277 277 278 280 282 284 284 285 286 286 287 287 289 290 290 290 291 292 292 293 293 294 295 295
252 251 252 255 258 260 263 265 268 270 272 273 275 277 278 279 280 280 280 280 280 280 282 283 285 285 285 286 287 288 289 289 289 289 290 291 292 292 293 294 294 296 297 297
249 253 256 257 258 261 265 267 269 271 273 274 277 279 279 281 282 284 284 285 285 284 285 286 287 287 287 288 288 289 291 292 292 293 295 295 295 295 294 295 295 296 297 298
Height
5860 5864 5868 5871 5873 5876 5878 5880 5882 5883 5883 5882 5881 5881 5881 5881 5883 5883 5884 5884 5883 5882 5882 5882 5882 5881 5881 5880 5878 5877 5876 5875 5874 5872 5871 5869 5867 5865 5864 5862 5860 5858 5856 5853
5854 5858 5862 5864 5868 5870 5873 5874 5876 5877 5878 5876 5876 5876 5876 5875 5877 5878 5879 5879 5879 5879 5879 5878 5878 5877 5876 5875 5874 5873 5872 5871 5869 5868 5866 5864 5863 5861 5859 5857 5856 5854 5852 5849
5848 5852 5855 5858 5862 5864 5865 5868 5870 5871 5873 5871 5870 5870 5871 5872 5872 5873 5874 5874 5875 5874 5874 5873 5873 5872 5872 5871 5870 5869 5867 5866 5865 5863 5862 5860 5858 5856 5855 5853 5851 5849 5847 5845
5842 5846 5848 5853 5855 5858 5859 5860 5863 5863 5864 5865 5864 5864 5865 5866 5866 5866 5868 5869 5869 5869 5869 5868 5868 5867 5866 5865 5864 5863 5862 5860 5859 5858 5856 5854 5852 5851 5849 5847 5846 5844 5842 5839
5835 5838 5842 5845 5847 5850 5851 5853 5854 5855 5856 5857 5857 5858 5858 5858 5859 5860 5862 5863 5863 5863 5863 5863 5862 5861 5860 5859 5858 5857 5856 5855 5853 5852 5850 5848 5847 5845 5843 5841 5840 5838 5836 5833
5828 5831 5835 5837 5839 5841 5844 5844 5846 5846 5848 5848 5849 5850 5851 5852 5852 5854 5855 5856 5857 5857 5857 5856 5856 5855 5854 5853 5852 5851 5850 5848 5847 5845 5843 5841 5840 5838 5837 5835 5833 5831 5829 5827
5820 5824 5826 5828 5831 5834 5836 5836 5838 5838 5839 5840 5842 5843 5843 5842 5844 5847 5848 5849 5849 5850 5850 5850 5849 5848 5847 5846 5845 5844 5843 5841 5840 5838 5837 5835 5833 5832 5830 5828 5826 5824 5822 5820
5812 5816 5819 5819 5822 5824 5825 5827 5829 5830 5831 5832 5833 5833 5834 5834 5837 5839 5840 5841 5841 5842 5842 5842 5842 5841 5840 5839 5838 5837 5835 5834 5832 5831 5829 5827 5826 5824 5822 5820 5818 5817 5815 5812
5805 5808 5808 5810 5813 5815 5817 5820 5822 5823 5824 5824 5824 5825 5826 5827 5829 5830 5831 5832 5833 5833 5833 5833 5833 5833 5832 5831 5830 5829 5827 5826 5824 5823 5821 5819 5817 5815 5813 5812 5810 5808 5806 5804
5795 5797 5800 5802 5805 5808 5809 5811 5813 5814 5815 5816 5816 5817 5818 5819 5820 5821 5822 5823 5824 5824 5824 5825 5824 5824 5824 5823 5822 5820 5819 5818 5816 5814 5812 5810 5808 5806 5805 5803 5802 5800 5798 5796
5786 5790 5792 5795 5797 5800 5801 5803 5804 5806 5807 5807 5808 5809 5809 5809 5810 5811 5812 5814 5814 5815 5815 5815 5815 5815 5815 5814 5813 5812 5810 5809 5807 5806 5804 5802 5800 5798 5796 5795 5793 5791 5789 5786
5778 5782 5784 5787 5789 5791 5792 5794 5795 5797 5798 5799 5799 5799 5800 5801 5802 5803 5803 5804 5804 5805 5805 5805 5806 5806 5805 5805 5804 5803 5802 5800 5799 5797 5796 5794 5792 5790 5788 5786 5784 5782 5780 5778
5770 5773 5775 5778 5781 5782 5784 5785 5786 5787 5788 5789 5789 5790 5791 5792 5793 5793 5794 5794 5794 5795 5795 5795 5795 5796 5796 5795 5795 5794 5793 5791 5790 5788 5787 5785 5783 5781 5780 5778 5776 5773 5771 5769
5762 5765 5767 5769 5771 5774 5775 5776 5777 5778 5779 5780 5780 5781 5782 5782 5783 5783 5784 5784 5785 5785 5785 5785 5786 5786 5786 5785 5785 5784 5783 5782 5781 5779 5777 5775 5773 5771 5770 5768 5766 5764 5762 5760
5755 5757 5759 5761 5763 5765 5766 5767 5767 5768 5770 5770 5771 5772 5772 5773 5773 5774 5774 5775 5775 5775 5775 5776 5776 5776 5775 5776 5775 5774 5774 5773 5771 5770 5768 5767 5764 5763 5761 5759 5757 5755 5753 5751
5747 5748 5750 5752 5754 5755 5756 5758 5759 5760 5760 5761 5762 5763 5763 5764 5764 5764 5764 5765 5765 5765 5766 5766 5766 5766 5766 5766 5765 5764 5764 5763 5761 5760 5759 5757 5755 5754 5752 5750 5748 5746 5744 5743
5738 5740 5741 5742 5744 5746 5747 5749 5750 5751 5751 5752 5753 5753 5754 5755 5755 5755 5755 5755 5755 5756 5756 5756 5756 5756 5756 5755 5755 5754 5753 5753 5751 5750 5749 5748 5746 5745 5743 5741 5739 5737 5735 5733
5730 5731 5732 5734 5735 5737 5738 5740 5741 5742 5743 5743 5744 5745 5745 5746 5746 5746 5746 5746 5747 5747 5747 5747 5747 5747 5746 5745 5745 5744 5743 5742 5741 5740 5739 5738 5736 5735 5733 5732 5730 5728 5726 5724
5723 5724 5725 5726 5727 5729 5730 5732 5733 5734 5734 5735 5736 5736 5736 5737 5737 5737 5737 5737 5738 5738 5738 5738 5738 5738 5737 5736 5735 5734 5733 5732 5731 5730 5729 5728 5726 5725 5723 5722 5720 5719 5716 5714
5715 5716 5717 5718 5720 5721 5722 5724 5725 5726 5727 5727 5728 5728 5729 5729 5729 5729 5729 5729 5729 5729 5729 5729 5729 5728 5727 5727 5726 5725 5724 5723 5722 5721 5720 5718 5717 5715 5714 5712 5711 5709 5706 5704
5708 5709 5710 5711 5713 5714 5715 5717 5718 5718 5719 5720 5720 5721 5721 5721 5721 5721 5721 5721 5721 5720 5720 5720 5720 5719 5718 5718 5716 5715 5715 5714 5713 5711 5710 5709 5707 5706 5704 5703 5701 5699 5696 5694
5702 5703 5704 5705 5706 5708 5709 5710 5711 5712 5712 5713 5713 5713 5714 5713 5713 5713 5713 5713 5713 5712 5712 5711 5711 5711 5710 5708 5707 5707 5706 5705 5704 5702 5701 5699 5698 5697 5695 5693 5691 5689 5687 5685
5697 5698 5699 5700 5701 5702 5703 5704 5705 5706 5706 5706 5706 5706 5706 5706 5706 5706 5706 5706 5705 5705 5704 5704 5703 5703 5702 5700 5699 5698 5697 5696 5695 5693 5691 5690 5689 5687 5685 5683 5681 5679 5677 5675
5693 5693 5694 5696 5697 5698 5698 5699 5700 5700 5701 5701 5700 5700 5700 5700 5699 5699 5699 5698 5698 5698 5697 5697 5696 5695 5694 5693 5692 5690 5689 5688 5686 5685 5683 5681 5679 5677 5676 5673 5671 5669 5667 5664
5689 5690 5691 5692 5693 5694 5694 5695 5695 5695 5695 5695 5695 5695 5694 5694 5694 5694 5693 5692 5692 5691 5691 5690 5689 5688 5687 5686 5684 5683 5681 5680 5678 5676 5674 5672 5670 5668 5666 5664 5662 5659 5657 5654
5686 5687 5688 5689 5689 5690 5690 5690 5690 5690 5690 5690 5690 5690 5690 5689 5689 5688 5688 5687 5686 5686 5685 5684 5683 5681 5680 5678 5677 5675 5674 5672 5670 5668 5666 5664 5662 5659 5657 5655 5652 5650 5647 5645
5683 5684 5684 5685 5686 5686 5686 5686 5686 5687 5686 5686 5686 5686 5685 5685 5684 5683 5682 5681 5681 5680 5679 5678 5676 5675 5673 5671 5670 5668 5666 5664 5662 5660 5657 5655 5653 5650 5648 5645 5643 5640 5638 5635